Simultaneous Nadir Overpasses (SNOs) Predictions

Prediction of SNOs between METOP-B and TERRA Satellite Orbit:

Table of predicted SNOs for the next 14.0 days since TLE Epoch: 12/18/2021
Index Date (METOP-B) Time (METOP-B) Lat,Lon (METOP-B) SZA (METOP-B ) Date (TERRA) Time (TERRA) Lat,Lon (TERRA) SZA (TERRA ) Distance(km) Time Diff (sec)
1 12/19/2021 04:37:01 -81.25, -25.46 72.99 12/19/2021 04:37:17 -81.24, -25.49 72.99 0.91 16
2 12/19/2021 05:27:40 81.27, 142.69 107.11 12/19/2021 05:26:42 81.27, 142.64 107.09 1.01 58
3 12/22/2021 00:11:21 -81.25, 41.13 72.98 12/22/2021 00:11:27 -81.25, 41.16 72.98 0.42 6
4 12/22/2021 01:02:01 81.26,-151.12 107.07 12/22/2021 01:00:53 81.26,-151.12 107.04 0.29 68
5 12/24/2021 18:55:03 81.24, -60.23 106.90 12/24/2021 18:56:12 81.25, -60.20 106.93 0.50 69
6 12/24/2021 19:45:42 -81.26, 107.70 73.04 12/24/2021 19:45:38 -81.26, 107.75 73.03 1.16 4
7 12/27/2021 14:29:24 81.25, 6.29 106.78 12/27/2021 14:30:23 81.25, 6.31 106.81 0.59 59
8 12/27/2021 15:20:04 -81.25, 173.85 73.20 12/27/2021 15:19:50 -81.25, 173.91 73.21 1.10 14
9 12/30/2021 10:03:44 81.25, 72.78 106.59 12/30/2021 10:04:33 81.25, 72.77 106.61 0.45 49



Historial Predications of SNOs between METOP-B and TERRA
